GW3147 Weather Reports


time (UTC)temp
F
wind
direction
speed
knots
gust
knots
rain 1hr
in
rain 24hr
in
rain mn
in
humidity
%
barometer
mb
20260507053049 48 285 1.7 5.2 0.00 0.58 0.00 93 1009.1
20260507051542 49 285 1.7 4.3 0.00 0.58 0.00 93 1009.2
20260507050041 49 285 0.9 4.3 0.00 0.58 0.00 93 1009.6
20260507044544 49 285 1.7 4.3 0.00 0.58 0.00 93 1009.8
20260507043040 49 285 2.6 4.3 0.02 0.58 0.00 93 1009.4
20260507041541 49 285 1.7 4.3 0.03 0.58 0.00 93 1009.4
20260507040042 49 285 0.9 5.2 0.05 0.58 0.00 93 1009.8
20260507034552 50 285 0.9 4.3 0.13 0.58 0.58 93 1009.6
20260507033041 51 285 1.7 5.2 0.12 0.56 0.56 93 1009.5
20260507031535 52 285 1.7 4.3 0.15 0.55 0.55 93 1009.9
20260507030041 53 285 1.7 3.5 0.13 0.52 0.52 93 1009.7
20260507024551 54 285 0.9 4.3 0.04 0.44 0.44 93 1009.4
20260507023041 55 285 1.7 7.0 0.04 0.44 0.44 93 1009.4
20260507021545 57 285 0.9 4.3 0.00 0.40 0.40 94 1009.0
20260507020035 57 285 0.9 3.5 0.00 0.40 0.40 94 1009.1
20260507014544 57 282 0.9 3.5 0.00 0.40 0.40 94 1008.8
20260507013042 57 282 0.9 4.3 0.00 0.40 0.40 94 1009.0
20260507011545 57 282 1.7 7.0 0.00 0.40 0.40 94 1008.8
20260507010050 57 282 0.9 4.3 0.00 0.40 0.40 94 1008.8
20260507004545 57 282 0.9 6.1 0.00 0.40 0.40 94 1008.6
20260507003043 57 290 1.7 6.1 0.00 0.40 0.40 94 1008.9
20260507001549 57 287 0.9 5.2 0.01 0.40 0.40 94 1008.9
20260507000042 57 283 0.0 3.5 0.01 0.40 0.40 94 1008.9
20260506234542 57 283 1.7 4.3 0.01 0.40 0.40 94 1008.8
20260506233045 56 283 0.9 7.0 0.02 0.40 0.40 93 1008.6
20260506231538 56 274 1.7 6.1 0.04 0.39 0.39 93 1008.3
20260506230042 56 269 0.9 5.2 0.06 0.39 0.39 93 1008.3
20260506224544 56 269 0.9 4.3 0.07 0.39 0.39 93 1008.3
20260506223045 56 269 0.9 6.1 0.06 0.38 0.38 93 1008.2
20260506221547 56 0 0.0 2.6 0.03 0.35 0.35 93 1008.2
20260506220048 56 267 1.7 5.2 0.02 0.32 0.32 93 1008.3
20260506214540 56 264 0.9 4.3 0.05 0.32 0.32 93 1008.2
20260506213036 56 264 1.7 5.2 0.07 0.32 0.32 93 1008.4
20260506211540 56 265 1.7 4.3 0.07 0.31 0.31 93 1008.5
20260506210042 56 265 0.9 5.2 0.07 0.30 0.30 93 1008.7
20260506204541 56 265 0.9 7.0 0.05 0.27 0.27 92 1008.8
20260506203041 56 263 0.9 3.5 0.04 0.25 0.25 92 1008.9
20260506201539 56 263 1.7 4.3 0.03 0.24 0.24 92 1008.9
20260506200040 56 263 0.9 6.1 0.03 0.23 0.23 92 1008.9
20260506194538 56 259 1.7 7.8 0.05 0.22 0.22 92 1009.1
20260506193036 56 253 0.9 9.6 0.05 0.21 0.21 92 1009.2
20260506191542 56 0 0.9 7.0 0.07 0.21 0.21 92 1009.5
20260506190041 56 254 1.7 7.8 0.07 0.20 0.20 91 1009.4
20260506184538 56 251 1.7 4.3 0.08 0.17 0.17 91 1009.6
20260506183034 56 251 1.7 6.1 0.12 0.16 0.16 90 1009.4
20260506181543 57 250 0.9 6.1 0.13 0.14 0.14 90 1009.5
20260506180041 58 250 0.9 4.3 0.12 0.12 0.12 89 1009.9
20260506174546 58 250 0.9 5.2 0.09 0.09 0.09 88 1010.2
20260506173041 59 249 0.9 3.5 0.04 0.04 0.04 86 1010.6
20260506171537 61 0 0.9 5.2 0.01 0.01 0.01 83 1010.9
20260506170036 63 247 3.5 8.7 0.00 0.00 0.00 78 1011.0
20260506164541 65 212 1.7 8.7 0.00 0.00 0.00 73 1010.7
20260506163048 65 210 1.7 7.8 0.00 0.00 0.00 72 1010.5
20260506161541 65 214 2.6 12.2 0.00 0.00 0.00 71 1010.7
20260506160042 66 169 1.7 7.0 0.00 0.00 0.00 70 1011.0
20260506154540 66 205 2.6 8.7 0.00 0.00 0.00 69 1010.9
20260506153041 66 202 2.6 9.6 0.00 0.00 0.00 68 1011.0
20260506151542 67 214 0.9 4.3 0.00 0.00 0.00 68 1011.1
20260506150050 66 197 3.5 11.3 0.00 0.00 0.00 69 1011.2
20260506144558 66 256 1.7 7.8 0.00 0.00 0.00 71 1011.5
20260506143050 65 246 3.5 10.4 0.00 0.00 0.00 72 1011.4
20260506141536 64 283 1.7 7.0 0.00 0.00 0.00 74 1011.4
20260506140053 63 267 1.7 6.1 0.00 0.00 0.00 76 1011.4
20260506134541 63 266 1.7 6.1 0.00 0.00 0.00 77 1011.3
20260506133047 62 271 1.7 5.2 0.00 0.00 0.00 79 1011.3
20260506131545 61 271 1.7 5.2 0.00 0.00 0.00 81 1011.4
20260506130105 60 268 1.7 5.2 0.00 0.00 0.00 82 1011.7
20260506124537 60 268 0.9 7.0 0.00 0.00 0.00 83 1011.9
20260506123040 60 262 2.6 7.8 0.00 0.00 0.00 83 1011.8
20260506121551 59 207 2.6 6.1 0.00 0.00 0.00 84 1011.6
20260506120041 59 218 1.7 7.8 0.00 0.00 0.00 84 1011.7
20260506114537 58 229 0.9 7.0 0.00 0.00 0.00 85 1011.8
20260506113038 58 226 2.6 8.7 0.00 0.00 0.00 85 1011.5
20260506111542 57 222 2.6 6.1 0.00 0.00 0.00 86 1012.2
20260506110044 56 219 0.9 6.1 0.00 0.00 0.00 86 1012.0
20260506104548 56 219 2.6 4.3 0.00 0.00 0.00 87 1012.1
20260506103040 56 219 0.9 2.6 0.00 0.00 0.00 87 1012.0
20260506101537 55 219 1.7 4.3 0.00 0.00 0.00 88 1011.8
20260506100037 55 219 0.9 3.5 0.00 0.00 0.00 87 1011.8
20260506094544 55 219 0.9 3.5 0.00 0.00 0.00 87 1011.7
20260506093044 55 219 2.6 6.1 0.00 0.00 0.00 87 1011.9
20260506091541 56 218 1.7 8.7 0.00 0.00 0.00 86 1011.7
20260506090042 56 219 0.9 7.0 0.00 0.00 0.00 86 1011.7
20260506084540 56 219 1.7 3.5 0.00 0.00 0.00 86 1012.1
20260506083053 56 219 1.7 7.0 0.00 0.00 0.00 86 1011.9
20260506081557 56 221 0.9 4.3 0.00 0.00 0.00 85 1011.9
20260506073041 57 224 0.9 5.2 0.00 0.00 0.00 84 1012.0
20260506071539 57 224 1.7 4.3 0.00 0.00 0.00 83 1012.2
20260506061546 58 240 1.7 6.1 0.00 0.00 0.00 81 1011.9